Temp
-12 -12 -11 -12 -12 -13 -14 -13 -12 -11 -11 -11 -11 -11 -10 -10 -10 -10 -10 -10 -10 -10 -10 -10 -10 -10 -10 -10 -10 -10 -10 -10 -10 -10 -10 -10 -10 -10 -11 -10 -11 -11 -11 -11
-13 -12 -12 -12 -13 -13 -14 -13 -12 -12 -12 -11 -11 -11 -11 -10 -10 -10 -10 -10 -10 -10 -10 -10 -10 -10 -10 -10 -10 -10 -11 -10 -10 -11 -11 -11 -11 -11 -11 -11 -11 -11 -11 -11
-12 -12 -12 -13 -13 -13 -14 -13 -13 -12 -12 -12 -12 -11 -11 -11 -10 -10 -10 -10 -10 -10 -10 -10 -10 -10 -10 -10 -10 -10 -10 -11 -11 -11 -11 -11 -11 -11 -11 -11 -11 -11 -11 -11
-14 -14 -14 -14 -13 -13 -14 -14 -13 -13 -13 -12 -12 -11 -11 -11 -10 -10 -10 -10 -10 -10 -10 -10 -10 -10 -10 -10 -11 -10 -10 -11 -11 -11 -11 -11 -11 -11 -11 -11 -11 -11 -11 -11
-13 -14 -14 -13 -12 -14 -15 -14 -14 -14 -13 -13 -12 -11 -11 -11 -10 -10 -10 -10 -10 -10 -10 -10 -11 -11 -10 -10 -10 -10 -10 -11 -11 -11 -11 -11 -11 -11 -11 -11 -11 -11 -11 -11
-16 -16 -15 -14 -16 -15 -17 -15 -14 -15 -14 -13 -12 -12 -10 -11 -10 -11 -11 -11 -11 -11 -11 -11 -11 -11 -10 -10 -10 -10 -10 -10 -11 -11 -11 -11 -11 -11 -11 -11 -11 -11 -11 -11
-15 -16 -15 -16 -15 -16 -16 -17 -15 -15 -14 -12 -12 -12 -10 -11 -11 -11 -11 -11 -11 -11 -11 -11 -11 -11 -11 -11 -11 -10 -10 -10 -10 -11 -11 -11 -11 -11 -11 -11 -11 -12 -12 -12
-14 -15 -14 -15 -15 -14 -15 -16 -15 -14 -13 -12 -13 -12 -11 -12 -12 -12 -12 -11 -11 -11 -11 -11 -11 -11 -11 -11 -11 -11 -11 -11 -11 -11 -11 -11 -11 -11 -11 -11 -11 -12 -12 -12
-15 -15 -16 -16 -16 -17 -15 -16 -16 -15 -14 -13 -13 -12 -12 -12 -12 -12 -12 -12 -12 -11 -11 -11 -11 -11 -11 -11 -11 -11 -11 -11 -11 -11 -11 -11 -11 -11 -11 -11 -12 -12 -12 -12
-16 -17 -17 -17 -17 -18 -17 -17 -18 -16 -15 -14 -13 -12 -12 -12 -12 -12 -12 -12 -12 -12 -12 -12 -12 -12 -11 -11 -11 -11 -11 -11 -11 -11 -11 -11 -11 -12 -12 -12 -12 -13 -13 -13
-17 -17 -17 -17 -17 -18 -18 -17 -18 -17 -16 -15 -14 -12 -12 -12 -12 -13 -13 -12 -12 -12 -12 -12 -12 -12 -12 -12 -12 -12 -12 -12 -12 -12 -11 -11 -12 -12 -13 -13 -13 -13 -13 -13
-18 -18 -18 -17 -18 -18 -18 -18 -18 -17 -16 -15 -15 -13 -13 -13 -13 -13 -13 -13 -13 -13 -12 -12 -12 -12 -12 -12 -12 -12 -12 -12 -12 -12 -12 -12 -13 -13 -13 -13 -13 -14 -14 -14
-18 -18 -18 -18 -18 -19 -18 -18 -18 -17 -16 -16 -16 -13 -13 -13 -13 -13 -13 -13 -14 -13 -13 -13 -13 -13 -13 -13 -12 -12 -12 -12 -12 -13 -13 -13 -13 -14 -14 -14 -14 -14 -14 -14
-19 -19 -19 -18 -16 -17 -17 -18 -18 -18 -17 -16 -15 -14 -14 -14 -14 -15 -15 -14 -14 -13 -13 -13 -13 -13 -13 -13 -13 -13 -13 -13 -13 -14 -14 -14 -14 -14 -14 -14 -14 -14 -15 -15
-19 -18 -18 -18 -18 -19 -19 -19 -19 -19 -18 -17 -15 -15 -15 -15 -15 -15 -15 -14 -14 -14 -14 -14 -14 -13 -13 -13 -14 -14 -14 -14 -14 -14 -14 -15 -15 -15 -15 -15 -15 -15 -15 -16
-19 -18 -18 -19 -19 -19 -19 -20 -19 -18 -17 -17 -15 -15 -15 -15 -15 -15 -15 -15 -15 -14 -14 -14 -14 -14 -14 -14 -14 -15 -15 -15 -15 -15 -15 -15 -15 -15 -15 -15 -16 -16 -16 -17
-20 -19 -20 -19 -19 -19 -19 -17 -18 -17 -17 -16 -16 -13 -16 -16 -15 -15 -16 -16 -16 -16 -15 -15 -15 -15 -15 -15 -15 -15 -15 -15 -15 -16 -16 -15 -16 -16 -16 -16 -16 -17 -17 -17
-20 -20 -20 -20 -19 -20 -17 -18 -18 -18 -17 -17 -16 -15 -16 -16 -16 -16 -17 -16 -16 -16 -17 -16 -16 -16 -16 -16 -16 -16 -16 -16 -16 -16 -16 -16 -16 -17 -17 -17 -17 -17 -18 -18
-20 -21 -20 -20 -20 -19 -17 -17 -17 -18 -16 -17 -15 -15 -16 -17 -17 -17 -16 -17 -17 -17 -17 -17 -18 -18 -17 -17 -16 -16 -16 -16 -16 -17 -17 -17 -17 -17 -17 -17 -18 -18 -18 -18
-20 -21 -21 -20 -20 -18 -15 -17 -17 -19 -17 -16 -16 -16 -17 -17 -18 -15 -17 -17 -17 -17 -17 -17 -17 -17 -17 -17 -17 -16 -16 -17 -17 -17 -17 -18 -18 -17 -18 -18 -18 -18 -18 -18
-20 -20 -20 -20 -20 -17 -17 -17 -18 -19 -16 -17 -18 -18 -18 -18 -17 -17 -17 -17 -17 -17 -17 -17 -17 -17 -17 -17 -17 -17 -17 -17 -18 -18 -18 -18 -18 -18 -18 -18 -18 -18 -18 -19
-21 -21 -20 -21 -20 -18 -17 -18 -18 -18 -18 -18 -18 -19 -19 -18 -17 -17 -17 -17 -17 -17 -17 -17 -17 -18 -18 -18 -18 -17 -17 -18 -18 -18 -18 -18 -18 -18 -18 -18 -18 -18 -19 -19
-21 -20 -20 -20 -19 -19 -19 -19 -19 -19 -19 -18 -18 -17 -17 -18 -18 -17 -17 -17 -17 -17 -17 -17 -17 -17 -17 -17 -17 -18 -18 -18 -18 -18 -18 -18 -18 -18 -18 -19 -19 -19 -19 -20
-20 -20 -20 -21 -19 -19 -19 -20 -19 -19 -18 -18 -18 -18 -18 -18 -18 -18 -18 -18 -18 -18 -18 -18 -18 -18 -18 -18 -18 -18 -18 -18 -19 -19 -19 -19 -18 -19 -19 -20 -20 -20 -20 -20
-20 -20 -20 -20 -20 -20 -20 -20 -19 -19 -19 -19 -19 -19 -19 -19 -19 -18 -18 -18 -18 -18 -18 -18 -19 -18 -18 -18 -18 -19 -19 -19 -19 -19 -19 -19 -19 -20 -20 -20 -20 -21 -20 -21
-20 -20 -20 -20 -20 -20 -20 -20 -20 -20 -20 -20 -20 -20 -19 -19 -19 -19 -19 -18 -18 -18 -19 -19 -19 -19 -19 -19 -19 -19 -19 -19 -19 -19 -20 -20 -20 -20 -21 -20 -20 -21 -21 -21
Height
5747 5752 5761 5765 5768 5772 5778 5786 5792 5798 5802 5807 5815 5821 5826 5830 5835 5841 5848 5850 5852 5854 5859 5861 5864 5865 5868 5869 5870 5870 5872 5872 5873 5874 5874 5874 5874 5875 5874 5873 5873 5873 5872 5870
5737 5747 5753 5757 5762 5766 5772 5780 5785 5792 5797 5803 5809 5814 5819 5823 5829 5834 5840 5844 5848 5850 5854 5857 5859 5861 5863 5864 5866 5868 5868 5868 5868 5868 5868 5867 5868 5868 5869 5869 5868 5866 5865 5864
5731 5742 5743 5746 5755 5761 5766 5774 5781 5787 5792 5794 5800 5804 5808 5815 5821 5826 5833 5840 5841 5845 5849 5852 5856 5858 5858 5859 5860 5863 5864 5864 5864 5864 5864 5863 5863 5861 5862 5861 5861 5860 5859 5858
5721 5728 5733 5742 5753 5757 5761 5771 5773 5777 5781 5787 5793 5798 5802 5809 5817 5819 5826 5831 5836 5840 5844 5847 5850 5853 5855 5855 5856 5857 5859 5860 5859 5858 5858 5858 5858 5857 5856 5854 5854 5853 5851 5849
5718 5720 5728 5736 5746 5748 5756 5762 5767 5772 5775 5780 5785 5789 5797 5801 5807 5813 5821 5827 5832 5835 5839 5841 5843 5845 5848 5849 5850 5852 5853 5855 5854 5852 5852 5852 5852 5851 5850 5848 5847 5845 5844 5842
5711 5718 5723 5732 5735 5740 5747 5754 5759 5761 5766 5768 5779 5782 5790 5794 5803 5811 5814 5819 5824 5829 5832 5835 5837 5839 5841 5842 5842 5844 5846 5848 5847 5846 5846 5844 5843 5843 5842 5841 5839 5837 5836 5834
5705 5711 5718 5723 5726 5732 5736 5745 5749 5751 5753 5761 5770 5771 5781 5786 5793 5800 5805 5809 5815 5820 5824 5827 5829 5832 5833 5834 5834 5836 5837 5839 5839 5838 5838 5838 5837 5837 5835 5834 5833 5830 5827 5825
5697 5702 5709 5715 5719 5726 5729 5736 5738 5740 5747 5755 5757 5757 5765 5779 5786 5793 5798 5803 5808 5813 5817 5820 5822 5823 5826 5827 5827 5828 5829 5830 5829 5829 5830 5829 5829 5828 5827 5825 5824 5822 5819 5816
5691 5698 5705 5709 5712 5717 5721 5725 5737 5739 5743 5748 5752 5759 5764 5777 5782 5788 5791 5795 5800 5804 5807 5809 5812 5815 5817 5818 5818 5820 5821 5822 5821 5821 5820 5820 5820 5819 5817 5816 5814 5812 5809 5807
5686 5691 5698 5702 5707 5709 5715 5725 5726 5728 5733 5738 5743 5750 5755 5767 5775 5781 5785 5789 5792 5795 5798 5800 5802 5805 5807 5808 5809 5810 5811 5813 5814 5813 5812 5811 5810 5808 5807 5805 5803 5801 5799 5796
5677 5683 5691 5694 5696 5704 5709 5709 5714 5723 5728 5730 5737 5744 5753 5760 5769 5773 5777 5781 5783 5785 5788 5790 5793 5795 5797 5798 5800 5801 5802 5803 5803 5803 5802 5801 5799 5798 5797 5796 5794 5792 5789 5786
5668 5675 5680 5688 5692 5697 5700 5705 5712 5715 5721 5724 5728 5737 5745 5752 5760 5764 5768 5770 5772 5774 5777 5780 5783 5785 5787 5788 5789 5790 5791 5793 5793 5793 5791 5791 5790 5788 5787 5786 5784 5782 5779 5776
5661 5666 5671 5677 5683 5687 5689 5696 5703 5708 5713 5716 5721 5731 5738 5742 5748 5753 5756 5758 5760 5763 5767 5770 5772 5773 5775 5777 5778 5780 5781 5782 5781 5780 5780 5780 5779 5778 5776 5775 5774 5771 5767 5764
5653 5658 5665 5671 5679 5684 5685 5690 5695 5699 5702 5710 5712 5725 5730 5734 5738 5743 5744 5745 5750 5753 5755 5758 5761 5763 5765 5766 5768 5769 5770 5769 5768 5769 5769 5769 5769 5767 5766 5764 5761 5758 5754 5750
5643 5648 5655 5661 5667 5672 5677 5683 5687 5689 5697 5697 5710 5711 5723 5726 5728 5730 5732 5735 5739 5741 5745 5748 5750 5752 5755 5756 5757 5757 5757 5757 5758 5759 5758 5758 5758 5756 5753 5751 5747 5744 5740 5736
5635 5639 5644 5650 5656 5661 5665 5671 5673 5679 5685 5686 5695 5699 5710 5714 5715 5720 5723 5724 5728 5731 5735 5737 5738 5741 5744 5745 5745 5745 5746 5746 5746 5747 5747 5746 5744 5742 5740 5737 5733 5730 5727 5722
5628 5632 5637 5641 5647 5650 5651 5664 5666 5672 5676 5682 5682 5699 5702 5702 5707 5709 5708 5710 5715 5719 5722 5726 5729 5730 5732 5734 5733 5734 5734 5735 5736 5735 5735 5733 5731 5729 5726 5723 5720 5717 5713 5709
5616 5623 5626 5630 5635 5632 5651 5654 5659 5662 5667 5673 5677 5682 5689 5693 5695 5695 5696 5701 5708 5709 5712 5715 5716 5717 5720 5720 5721 5722 5723 5723 5722 5721 5719 5718 5716 5713 5711 5709 5706 5702 5698 5694
5606 5611 5615 5617 5621 5627 5634 5645 5648 5647 5656 5662 5668 5673 5674 5678 5677 5679 5686 5694 5695 5696 5700 5702 5701 5702 5705 5707 5707 5707 5707 5707 5706 5705 5704 5702 5700 5698 5696 5694 5692 5688 5684 5680
5596 5601 5605 5608 5609 5614 5639 5634 5639 5640 5638 5655 5653 5658 5660 5660 5657 5670 5677 5677 5679 5681 5682 5685 5686 5688 5689 5690 5692 5692 5693 5692 5690 5689 5687 5687 5685 5683 5682 5679 5676 5673 5669 5665
5585 5589 5592 5597 5598 5610 5616 5619 5621 5623 5646 5636 5644 5646 5644 5645 5649 5652 5654 5658 5661 5664 5666 5668 5669 5672 5674 5674 5675 5676 5676 5676 5675 5673 5672 5671 5670 5668 5666 5664 5661 5658 5654 5650
5574 5578 5583 5589 5592 5598 5603 5603 5608 5620 5623 5622 5627 5631 5631 5634 5635 5637 5640 5642 5646 5649 5650 5652 5653 5655 5658 5658 5659 5661 5662 5661 5660 5658 5658 5657 5655 5653 5651 5649 5646 5642 5639 5635
5560 5566 5573 5577 5585 5590 5589 5593 5595 5603 5607 5609 5612 5616 5620 5623 5625 5626 5629 5631 5632 5633 5635 5637 5638 5640 5640 5642 5644 5645 5645 5644 5644 5644 5643 5642 5641 5639 5636 5633 5630 5628 5624 5620
5552 5558 5562 5568 5575 5576 5578 5579 5582 5586 5591 5594 5597 5601 5605 5609 5612 5615 5617 5619 5620 5621 5623 5625 5626 5627 5628 5628 5629 5630 5629 5630 5630 5630 5629 5628 5626 5623 5621 5618 5615 5612 5608 5604
5542 5547 5552 5557 5560 5564 5566 5566 5570 5575 5578 5582 5585 5588 5591 5596 5599 5603 5605 5607 5609 5610 5611 5612 5613 5614 5615 5615 5615 5616 5616 5616 5615 5615 5614 5613 5611 5609 5606 5602 5599 5596 5592 5586
5532 5537 5540 5545 5549 5551 5553 5556 5559 5562 5565 5569 5573 5576 5578 5581 5585 5588 5591 5594 5596 5598 5599 5599 5600 5601 5602 5602 5602 5602 5602 5602 5601 5601 5600 5597 5595 5593 5590 5587 5583 5578 5573 5568
Wind_Speed
48 44 36 36 26 38 57 56 55 54 52 50 46 45 43 41 40 36 35 33 30 27 26 25 24 23 22 22 21 21 22 21 20 21 21 22 22 23 24 24 24 25 26 28
53 44 41 40 27 42 55 55 56 54 52 51 50 48 46 45 42 40 40 37 33 31 30 27 26 25 24 23 22 22 22 23 23 24 24 25 26 26 27 28 29 29 29 30
52 44 48 43 37 39 58 56 54 55 53 53 53 53 52 50 47 45 42 40 36 34 33 29 29 28 27 25 24 24 23 25 26 27 27 28 28 29 29 30 31 32 32 33
48 47 44 39 43 41 59 55 52 55 56 57 55 56 53 50 49 47 45 43 38 36 34 32 31 31 29 27 26 25 24 25 27 28 28 30 29 30 30 31 32 32 33 34
47 46 46 44 46 48 54 49 47 49 51 55 56 58 55 55 53 49 46 42 39 39 37 36 33 33 31 29 27 27 25 26 27 28 29 30 31 32 31 32 33 34 35 36
42 40 43 42 46 51 42 42 45 48 52 58 57 58 58 56 51 46 47 45 43 40 39 38 36 34 32 31 30 29 29 28 28 30 31 31 32 35 35 35 35 35 36 38
46 42 42 44 44 54 56 41 46 51 56 60 58 60 60 57 54 50 50 47 44 42 41 41 39 37 36 34 32 32 32 32 31 32 33 33 34 36 37 38 39 38 38 39
48 48 48 48 50 47 58 48 52 57 58 59 60 66 64 56 54 50 48 48 47 44 43 42 41 40 39 37 35 35 35 35 35 36 36 36 36 36 38 40 42 41 40 39
46 44 42 48 46 47 49 57 46 49 54 55 59 59 58 54 52 48 46 46 44 45 44 43 44 43 42 41 39 39 39 38 38 38 37 37 38 39 41 42 41 41 41 42
45 44 43 46 45 44 50 46 47 51 54 55 58 60 61 55 51 47 46 45 44 45 46 46 45 45 44 43 42 42 41 40 39 39 38 39 40 42 42 42 41 41 42 44
49 45 45 44 51 46 47 53 51 47 50 51 55 60 57 52 48 45 44 45 46 46 46 46 48 46 45 45 44 42 41 40 40 40 40 42 43 43 42 41 42 44 44 46
51 49 45 43 45 46 48 42 43 46 49 51 52 52 52 52 46 41 40 42 43 46 47 46 45 44 43 43 43 42 41 40 40 41 43 44 44 42 42 42 43 44 45 49
51 51 50 48 47 46 48 51 44 45 45 48 48 53 49 49 45 44 42 40 39 40 42 44 44 43 42 42 42 41 41 42 42 42 44 43 42 42 41 44 46 48 52 56
48 51 51 49 42 43 46 49 48 45 47 48 50 48 44 42 40 35 35 38 39 40 41 42 41 41 41 41 42 42 43 44 42 43 43 42 43 42 45 48 52 58 56 56
51 53 50 50 47 43 42 41 46 46 45 45 48 51 42 41 38 37 38 38 40 40 40 40 40 41 42 43 42 43 43 42 42 45 45 44 46 52 56 56 56 57 56 56
55 55 52 52 51 51 51 44 46 53 54 57 59 58 48 44 48 49 49 48 45 43 43 43 44 47 48 48 46 44 42 42 44 44 46 54 59 55 55 55 55 55 56 56
54 53 52 52 49 48 50 47 52 51 53 53 57 46 49 52 52 51 49 46 44 42 42 44 46 47 46 45 45 46 46 46 50 55 58 57 56 56 55 56 56 57 58 59
49 52 53 54 53 55 46 43 49 50 50 50 50 49 49 53 55 54 51 47 45 43 46 46 47 48 48 49 52 54 56 59 60 61 63 60 60 59 58 58 58 58 60 59
52 48 51 54 55 56 55 48 46 56 52 52 47 48 54 57 61 63 58 55 54 55 58 55 54 55 55 58 60 60 61 62 62 61 60 58 57 58 59 58 59 58 57 56
57 56 51 57 58 59 46 51 51 46 50 39 47 49 53 54 59 51 57 59 60 61 64 63 62 63 65 66 65 66 68 64 62 59 58 58 58 58 60 59 58 56 56 60
55 58 60 60 62 55 50 50 50 50 44 44 38 43 50 56 60 62 63 61 60 60 61 63 65 67 67 67 67 64 61 58 56 57 57 56 59 59 57 56 55 56 60 63
48 56 56 58 60 53 52 55 54 46 46 49 49 47 50 51 55 55 57 61 61 61 61 60 59 57 57 59 61 61 59 60 60 58 57 56 53 54 54 56 56 59 62 63
54 51 50 51 47 47 49 51 54 51 51 50 48 48 49 53 54 52 49 51 49 49 51 52 51 49 52 53 54 53 52 53 53 53 53 54 54 53 55 56 59 61 63 65
50 50 51 50 45 48 48 46 47 49 49 48 47 47 46 42 42 42 42 42 42 39 39 40 43 46 46 46 44 45 46 47 49 51 54 53 53 54 58 61 62 63 65 67
43 43 44 42 41 42 44 47 49 45 43 42 42 42 43 42 41 41 43 43 41 40 40 42 44 46 47 47 48 49 49 51 51 52 53 54 56 58 59 60 63 67 71 73
50 49 48 49 47 46 47 49 49 47 46 47 46 46 46 48 48 47 47 48 48 48 47 47 48 47 48 48 48 48 47 49 51 52 52 55 56 58 62 65 67 69 73 77
Wind_Direction
219 218 229 244 245 214 201 212 208 210 208 206 206 206 207 210 211 209 211 213 213 214 218 219 221 220 223 226 234 244 254 256 258 261 267 271 273 277 278 282 286 290 291 291
217 214 221 227 226 215 205 214 209 212 211 213 210 209 212 212 212 210 214 216 218 222 224 221 223 226 228 233 237 245 254 260 262 267 267 270 275 279 283 287 288 287 287 288
219 219 217 217 223 226 209 213 213 213 216 216 213 212 213 214 214 215 214 220 222 225 225 223 228 231 233 236 240 245 249 257 262 265 268 270 272 274 279 281 283 287 290 292
222 220 224 226 225 228 214 214 217 215 216 218 219 217 217 217 218 219 219 221 220 224 229 230 231 234 238 239 243 245 249 254 258 263 267 268 271 273 276 278 283 287 291 293
224 223 222 218 222 224 212 217 221 221 221 222 221 223 216 219 220 221 226 223 222 223 229 232 234 238 241 245 248 252 253 256 260 265 270 272 275 277 279 283 285 289 291 293
220 219 218 213 212 214 210 222 221 224 223 223 222 226 218 223 224 224 229 228 225 225 230 236 238 243 245 250 252 257 261 262 263 267 270 273 278 280 282 284 286 287 289 290
217 212 219 214 215 216 209 215 223 225 224 224 222 225 223 223 227 226 227 229 229 228 229 234 239 243 246 250 254 258 261 266 267 269 272 275 277 279 283 285 285 285 287 290
222 217 217 214 217 225 216 213 224 227 225 225 224 225 226 229 227 229 233 235 234 235 235 237 240 244 248 252 255 258 260 263 266 270 272 275 278 280 282 284 285 287 288 287
221 224 225 219 213 218 222 219 226 232 234 231 232 230 235 231 236 234 236 240 241 240 242 242 243 247 250 253 255 258 260 262 265 269 272 275 277 279 280 281 282 283 285 285
222 222 222 219 216 217 224 227 224 229 234 233 230 232 236 235 237 240 240 241 243 244 244 246 247 249 251 254 256 258 261 265 267 269 271 273 275 276 277 278 281 282 283 285
219 220 222 223 220 219 223 224 220 226 235 237 237 234 234 240 241 243 246 246 246 246 247 248 249 252 256 258 259 261 263 265 266 269 271 272 272 274 276 279 280 282 285 289
218 217 220 225 229 228 219 227 233 238 237 238 240 238 240 243 240 243 248 248 245 246 249 250 252 254 255 257 259 260 262 264 266 268 269 268 270 271 275 278 281 283 287 290
222 221 221 224 225 225 229 223 228 235 238 240 241 236 239 242 244 242 243 245 246 247 248 250 252 254 255 257 259 260 263 264 264 264 265 266 269 272 275 279 282 286 289 290
226 229 229 234 243 236 236 231 228 237 238 238 238 235 239 242 246 244 241 241 244 248 249 249 250 252 253 255 257 260 261 261 260 261 264 268 270 274 279 283 288 290 288 288
224 229 230 232 233 229 235 239 235 238 239 245 234 237 236 240 239 237 239 242 242 244 247 249 250 253 252 253 253 253 254 256 259 263 265 270 280 286 286 283 285 287 287 287
227 232 232 232 234 235 230 231 234 234 234 236 236 233 234 238 243 246 248 249 249 249 249 248 250 251 252 252 252 253 256 259 261 268 274 283 284 280 282 284 283 284 285 286
230 235 236 239 240 242 241 244 244 243 240 245 246 250 238 241 244 247 245 244 244 246 246 247 247 249 251 252 253 256 260 265 272 278 277 274 278 279 281 282 282 283 284 285
225 232 238 241 241 244 244 244 248 250 252 251 252 251 250 249 246 245 245 245 246 247 250 251 251 251 252 255 258 260 263 266 270 272 275 275 278 279 279 279 279 281 284 284
223 225 232 237 240 243 238 238 248 249 251 249 255 256 256 257 257 253 251 255 255 256 258 253 253 255 257 258 262 268 269 270 270 273 276 276 275 276 277 278 281 281 283 284
229 229 232 238 241 243 240 245 244 245 249 249 245 246 251 254 254 256 255 255 257 257 254 253 255 257 259 262 265 268 271 272 273 273 272 272 273 274 277 279 280 281 282 283
236 235 232 239 244 250 248 247 246 249 245 244 244 248 251 252 255 254 253 253 255 257 256 257 258 258 258 261 264 266 268 268 265 267 269 268 272 277 278 278 279 279 281 285
237 239 240 242 244 248 248 252 255 250 248 249 250 245 247 248 249 250 253 256 256 257 258 259 260 260 258 259 261 264 266 265 266 265 266 272 275 276 277 277 277 279 282 282
239 236 237 241 248 250 254 257 260 258 260 257 254 251 251 247 251 255 255 254 254 254 256 260 260 257 256 257 260 260 261 262 265 268 270 272 276 275 274 274 277 280 281 283
237 237 241 247 242 243 249 257 258 255 254 251 250 249 250 242 242 246 247 246 248 251 253 256 258 257 258 257 257 259 261 264 267 270 272 274 272 274 276 278 279 281 283 283
231 232 241 241 239 239 243 250 251 250 252 252 253 248 245 245 242 241 244 245 249 254 258 258 259 261 262 264 266 267 270 271 273 272 271 271 272 275 277 279 280 279 282 286
241 243 245 246 247 248 251 248 250 257 258 255 254 254 251 249 250 248 249 250 252 253 255 257 256 259 262 264 265 264 267 268 269 270 271 273 274 275 275 277 281 284 284 280